Location: Great Chart
(51.1333°N, 0.8333°E)
Time: 11:50:41
(UTC+00:00)

ERS-2 - Pass Details

Date: 19 September 2020
Orbit: 492 x 499 km, 98.6° (Epoch: 30 October)

Event Time Altitude Azimuth Distance (km) Brightness Sun altitude
Rises 04:09:08 0° 173° (S) 2,580 5.6 -14.5°
Reaches altitude 10° 04:11:14 10° 177° (S) 1,702 4.6 -14.2°
Maximum altitude 04:14:50 58° 257° (WSW) 589 2.1 -13.7°
Drops below altitude 10° 04:18:29 10° 338° (NNW) 1,716 4.8 -13.1°
Sets 04:20:36 0° 342° (NNW) 2,605 5.8 -12.8°
